Regional Weather Roundup
Issued by NWS Burlington, VT

Home | Current Version | Previous Version | Text Only | Print | Product List | Glossary On
Versions: 1 2 3 4 5 6 7 8 9 10 11 12 13 14 15 16 17 18 19 20 21 22 23 24 25 26 27 28 29 30 31 32 33 34 35 36 37 38 39 40 41 42 43 44 45 46 47 48 49 50
000
ASUS41 KBTV 241130
RWRBTV
VERMONT REGIONAL WEATHER ROUNDUP
NATIONAL WEATHER SERVICE BURLINGTON VT
600 AM EST FRI FEB 24 2017

NOTE: "FAIR" INDICATES FEW OR NO CLOUDS BELOW 12,000 FEET WITH NO
SIGNIFICANT WEATHER AND/OR OBSTRUCTIONS TO VISIBILITY.

* THESE REPORTS ARE NOT UNDER NWS QUALITY CONTROL AND/OR DO NOT
  REPORT WEATHER SUCH AS PRECIPITATION AND FOG.

VTZ001>019-241200-
_____VERMONT_____


CITY           SKY/WX    TMP DP  RH WIND       PRES   REMARKS
BURLINGTON     CLOUDY    40  36  86 CALM      29.91F
MONTPELIER     MOCLDY    35  35 100 CALM      29.93S
MORRISVILLE    PTCLDY    30  29  96 SW3       29.92S
ST. JOHNSBURY*   N/A     30  29  96 MISG      29.90S
LYNDONVILLE*   FAIR      35  35  98 CALM      29.91F FOG
MIDDLEBURY*    FAIR      35  35 100 CALM      29.91R FOG
RUTLAND*       PTCLDY    39  37  92 SE8       29.91R
SPRINGFIELD    CLOUDY    31  29  92 CALM      29.92S
HIGHGATE*      CLOUDY    35  33  93 CALM      29.93S
NEWPORT*       FAIR      33  33  99 CALM      29.91S
BENNINGTON     CLOUDY    42  40  92 CALM      29.89S
SUTTON*          N/A     36 N/A N/A MISG        N/A
ISLAND POND*     N/A     28 N/A N/A SE1         N/A
GALLUP MILLS*    N/A     28 N/A N/A MISG        N/A
UNION VILLAGE*   N/A     30 N/A N/A MISG        N/A
MT. MANSFIELD*   N/A     37 N/A N/A SW24        N/A  WCI  26

_____LAKE CHAMPLAIN_____


CITY           SKY/WX    TMP DP  RH WIND       PRES   REMARKS
BURTON ISLAND*   N/A     41  37  87 E1          N/A
COLCHESTER RF*   N/A     41  37  87 NE2         N/A
DIAMOND ISL*     N/A     46  37  71 NW13        N/A

$$

NYZ007-026>031-035-052-083-087-241200-
_____NORTHERN NEW YORK_____


CITY           SKY/WX    TMP DP  RH WIND       PRES   REMARKS
PLATTSBURGH    CLOUDY    35  33  92 CALM      29.92R
SARANAC LAKE   CLOUDY    32  32 100 CALM      29.87S
MASSENA        CLOUDY    38  34  85 NW3       29.94S
OGDENSBURG*    CLOUDY    37  34  89 CALM      29.92F
POTSDAM*       CLOUDY    37  37 100 CALM      29.93R
STARK FALLS*     N/A     36 N/A N/A E1          N/A
WATERTOWN      CLOUDY    38  37  97 NE8       29.88F
FT DRUM        CLOUDY    38  35  88 NE6       29.88F
ALBANY         CLOUDY    44  42  93 NW5       29.90S
GLENS FALLS    PTCLDY    36  32  85 CALM      29.89F

$$
NHZ002-005-011-241200-
_____NEW HAMPSHIRE_____


CITY           SKY/WX    TMP DP  RH WIND       PRES   REMARKS
LEBANON        MOCLDY    34  32  92 CALM      29.91S
KEENE          LGT RAIN  36  36 100 SE3       29.93S FOG
MT WASHINGTON  MOCLDY    34  30  86 W52         N/A  WCI  17
PLYMOUTH       FAIR      29  29  99 CALM      29.92R
WHITEFIELD     PTCLDY    29  26  89 CALM      29.91R

$$

_____REGIONAL QUEBEC LOCATIONS_____


CITY           SKY/WX    TMP DP  RH WIND       PRES   REMARKS
MONTREAL       CLOUDY    37  32  81 NW6       29.92S
QUEBEC CITY    PTCLDY    32  30  93 SW10      29.89R WCI  24
SHERBROOKE     CLOUDY    39  34  81 E2        29.88F

_____REGIONAL ONTARIO LOCATIONS_____


CITY           SKY/WX    TMP DP  RH WIND       PRES   REMARKS
OTTAWA         MOCLDY    34  30  86 VRB2      29.93S

______KEY______
VSB  - VISIBILITY IN MILES
WCI  - WIND CHILL INDEX
HX   - HEAT INDEX
$$
NNNN



USA.gov is the U.S. government's official web portal to all federal, state and local government web resources and services.